TimeEDT,TemperatureF,Dew PointF,Humidity,Sea Level PressureIn,VisibilityMPH,Wind Direction,Wind SpeedMPH,Gust SpeedMPH,PrecipitationIn,Events,Conditions,WindDirDegrees,DateUTC
12:53 AM,37.0,36.0,96,30.40,9.0,Calm,Calm,-,N/A,,Clear,0,2013-10-14 04:53:00
1:28 AM,35.6,35.6,100,30.39,2.0,Calm,Calm,-,N/A,,Mostly Cloudy,0,2013-10-14 05:28:00
1:39 AM,37.4,35.6,93,30.39,7.0,Calm,Calm,-,N/A,,Mostly Cloudy,0,2013-10-14 05:39:00
1:53 AM,37.9,37.0,97,30.39,10.0,Calm,Calm,-,N/A,,Overcast,0,2013-10-14 05:53:00
2:16 AM,37.4,37.4,100,30.38,10.0,Calm,Calm,-,N/A,,Scattered Clouds,0,2013-10-14 06:16:00
2:39 AM,37.4,37.4,100,30.37,1.5,Calm,Calm,-,N/A,,Partly Cloudy,0,2013-10-14 06:39:00
2:53 AM,37.9,37.0,97,30.37,1.2,Calm,Calm,-,N/A,,Clear,0,2013-10-14 06:53:00
3:07 AM,37.4,35.6,93,30.36,3.0,Calm,Calm,-,N/A,,Clear,0,2013-10-14 07:07:00
3:53 AM,35.1,34.0,96,30.36,9.0,Calm,Calm,-,N/A,,Clear,0,2013-10-14 07:53:00
4:34 AM,33.8,33.8,100,30.36,1.8,Calm,Calm,-,N/A,,Clear,0,2013-10-14 08:34:00
4:41 AM,35.6,33.8,93,30.36,1.2,Calm,Calm,-,N/A,,Partly Cloudy,0,2013-10-14 08:41:00
4:53 AM,34.0,33.1,96,30.36,3.0,Calm,Calm,-,N/A,,Partly Cloudy,0,2013-10-14 08:53:00
5:05 AM,33.8,33.8,100,30.35,2.5,Calm,Calm,-,N/A,,Mostly Cloudy,0,2013-10-14 09:05:00
5:11 AM,33.8,32.0,93,30.35,1.0,Calm,Calm,-,N/A,,Mist,0,2013-10-14 09:11:00
5:18 AM,33.8,33.8,100,30.36,0.5,Calm,Calm,-,N/A,Fog,Fog,0,2013-10-14 09:18:00
5:53 AM,34.0,33.1,96,30.37,1.8,Calm,Calm,-,N/A,,Mostly Cloudy,0,2013-10-14 09:53:00
5:55 AM,33.8,33.8,100,30.36,4.0,Calm,Calm,-,N/A,,Scattered Clouds,0,2013-10-14 09:55:00
6:53 AM,33.1,32.0,96,30.37,10.0,Calm,Calm,-,N/A,,Clear,0,2013-10-14 10:53:00
7:53 AM,35.1,34.0,96,30.38,10.0,Calm,Calm,-,N/A,,Clear,0,2013-10-14 11:53:00
8:53 AM,48.0,44.1,86,30.38,10.0,Calm,Calm,-,N/A,,Clear,0,2013-10-14 12:53:00
9:53 AM,55.0,46.0,72,30.36,10.0,Variable,5.8,-,N/A,,Clear,0,2013-10-14 13:53:00
10:53 AM,57.9,46.0,65,30.35,10.0,East,4.6,-,N/A,,Clear,100,2013-10-14 14:53:00
11:53 AM,60.1,45.0,57,30.34,10.0,Calm,Calm,-,N/A,,Clear,0,2013-10-14 15:53:00
12:53 PM,61.0,44.1,54,30.30,10.0,Calm,Calm,-,N/A,,Clear,0,2013-10-14 16:53:00
1:53 PM,63.0,42.1,46,30.29,10.0,SE,6.9,-,N/A,,Clear,140,2013-10-14 17:53:00
2:53 PM,63.0,37.0,38,30.28,10.0,Variable,3.5,-,N/A,,Clear,0,2013-10-14 18:53:00
3:53 PM,61.0,41.0,48,30.27,10.0,South,6.9,-,N/A,,Clear,180,2013-10-14 19:53:00
4:53 PM,57.9,48.0,70,30.27,10.0,South,6.9,-,N/A,,Clear,180,2013-10-14 20:53:00
5:53 PM,55.0,48.9,80,30.27,10.0,SW,3.5,-,N/A,,Clear,230,2013-10-14 21:53:00
6:53 PM,52.0,48.0,86,30.29,10.0,Calm,Calm,-,N/A,,Clear,0,2013-10-14 22:53:00
7:53 PM,46.9,46.0,97,30.28,10.0,Calm,Calm,-,N/A,,Clear,0,2013-10-14 23:53:00
8:53 PM,46.9,45.0,93,30.29,10.0,Calm,Calm,-,N/A,,Clear,0,2013-10-15 00:53:00
9:53 PM,45.0,44.1,97,30.29,10.0,Calm,Calm,-,N/A,,Clear,0,2013-10-15 01:53:00
10:53 PM,44.1,43.0,96,30.28,8.0,Calm,Calm,-,N/A,,Clear,0,2013-10-15 02:53:00
11:53 PM,43.0,42.1,97,30.27,9.0,Calm,Calm,-,N/A,,Clear,0,2013-10-15 03:53:00